THORAD AGENA D DEB, 5067

Orbit data source: Space-Track

THORAD AGENA D DEB, 5067 is space debris in SSO originally from a launch on Wed, 08 Apr 1970 UTC launched from the Air Force Western Test Range (AFWTR). Debris objects in space refer to the collection of defunct objects orbiting the Earth. Examples of debris include non-operational satellites, rocket bodies, and fragments generated from explosions, collisions, or faulty payload assembly.

Loading next visibility...
Identifier
5067, 1970-025JM
Orbit
SSO
Country
Flag of USUS
Related business
Manufacturer
Unknown
Mission
Spacecraft
Bus & Motor
Unknown
Mass
Unknown
Launch date (UTC)
1970-04-08 (56 years ago)
Launch vehicle
Unknown
Launch site
Air Force Western Test Range (AFWTR)
Object type
Payload
Rocket body
Debris
Shape & HBR
Unknown shape, 0.1 m
Radar Cross Section
Small (<0.1 m²)

Expand to show TLE details & history
Last TLE update: 7 hours ago

TLE from 7 hours ago
0 THORAD AGENA D DEB
1  5067U 70025JM  26037.16235985  .00000435  00000-0  59459-3 0  9996
2  5067 100.0145 288.1342 0005257 223.0629 290.7839 13.65225999767449
Epoch: 2026-02-06T03:53Z
TLE epoch observation values (Epoch: 2026-02-06T03:53:47.891Z)
Latitude
25.81366°
Longitude
-81.74489°
Altitude
1,018.407 km
Speed
7.345 km/s
True Right ascension
07h 32m 02s
True Declination
25° 41' 02"
Sunlit
Object was in full shadow at epoch
Visualization orbit readout
Latitude
Unknown
Longitude
Unknown
Altitude
Unknown
Speed
Unknown
Apparent Right ascension
Unknown
Apparent Declination
Unknown
Sunlit
N/A
Visualization observer readout
Local Sidereal Time
12:44:43
Azimuth
Unknown
Elevation
Unknown
Doppler factor
Unknown
Orbital elements
Apogee altitude
1,017.944 km
Perigee altitude
1,010.172 km
Semi-major axis
7,392.195 km
Eccentricity
0.00053
Inclination
100.0145°
RAAN
288.1342°
Arg. of periapsis
223.0629°
True anomaly
290.72757°
Mean anomaly
290.7839°
Eccentric anomaly
290.75573°
Mean motion
3.41494 °/min
Orbital period
105.42 mins
BSTAR
0.00059459

Documentation

Showing up to 5 results
|